EW6762 Weather Reports


Display with metric or nautical units.
time (UTC)temp
F
wind
direction
speed
MPH
gust
MPH
rain 1hr
in
rain 24hr
in
rain mn
in
humidity
%
barometer
mb
20260510230348 88 294 4.0 6.0 0.00 0.00 0.00 45 1015.0
20260510225350 89 300 2.0 5.0 0.00 0.00 0.00 44 1014.9
20260510224309 89 253 3.0 7.0 0.00 0.00 0.00 43 1015.0
20260510223322 90 273 1.0 7.0 0.00 0.00 0.00 44 1014.9
20260510222345 89 277 4.0 6.0 0.00 0.00 0.00 43 1014.9
20260510221322 90 184 3.0 5.0 0.00 0.00 0.00 42 1014.8
20260510220324 90 270 2.0 4.0 0.00 0.00 0.00 42 1014.7
20260510215320 89 246 2.0 8.0 0.00 0.00 0.00 43 1014.6
20260510214321 90 240 4.0 10.0 0.00 0.00 0.00 43 1014.7
20260510213316 90 312 3.0 10.0 0.00 0.00 0.00 42 1014.6
20260510212309 90 273 5.0 13.0 0.00 0.00 0.00 42 1014.5
20260510211323 89 169 2.0 7.0 0.00 0.00 0.00 43 1014.5
20260510210318 89 292 2.0 7.0 0.00 0.00 0.00 48 1014.5
20260510205340 89 190 3.0 7.0 0.00 0.00 0.00 45 1014.5
20260510204320 89 77 3.0 6.0 0.00 0.00 0.00 46 1014.5
20260510203312 89 39 2.0 5.0 0.00 0.00 0.00 49 1014.6
20260510202332 88 53 2.0 7.0 0.00 0.00 0.00 50 1014.6
20260510201327 87 85 1.0 6.0 0.00 0.00 0.00 49 1014.6
20260510200322 86 157 2.0 3.0 0.00 0.00 0.00 48 1014.7
20260510195326 87 76 1.0 4.0 0.00 0.00 0.00 48 1014.8
20260510194320 87 252 3.0 8.0 0.00 0.00 0.00 47 1014.9
20260510193320 88 279 4.0 7.0 0.00 0.00 0.00 46 1015.0
20260510192320 88 257 2.0 6.0 0.00 0.00 0.00 47 1015.1
20260510191308 87 56 3.0 5.0 0.00 0.00 0.00 49 1015.2
20260510190329 87 248 3.0 8.0 0.00 0.00 0.00 48 1015.3
20260510185323 87 155 3.0 6.0 0.00 0.00 0.00 48 1015.3
20260510184318 85 267 0.0 3.0 0.00 0.00 0.00 52 1015.5
20260510183321 84 136 3.0 5.0 0.00 0.00 0.00 51 1015.5
20260510182317 84 150 1.0 5.0 0.00 0.00 0.00 51 1015.5
20260510181318 86 247 4.0 7.0 0.00 0.00 0.00 50 1015.7
20260510180313 86 246 2.0 7.0 0.00 0.00 0.00 52 1015.8
20260510175336 86 198 2.0 3.0 0.00 0.00 0.00 51 1015.8
20260510174311 85 165 2.0 5.0 0.00 0.00 0.00 55 1015.8
20260510173332 85 86 3.0 6.0 0.00 0.00 0.00 55 1015.8
20260510172327 85 107 1.0 6.0 0.00 0.00 0.00 55 1016.0
20260510171324 86 218 5.0 8.0 0.00 0.00 0.00 51 1016.0
20260510170325 87 59 1.0 6.0 0.00 0.00 0.00 52 1016.1
20260510165317 86 178 4.0 8.0 0.00 0.00 0.00 53 1016.1
20260510164312 86 247 1.0 5.0 0.00 0.00 0.00 53 1016.2
20260510163330 85 337 4.0 9.0 0.00 0.00 0.00 54 1016.2
20260510162325 84 259 1.0 4.0 0.00 0.00 0.00 54 1016.3
20260510161321 84 286 2.0 7.0 0.00 0.00 0.00 56 1016.4
20260510160323 84 308 4.0 9.0 0.00 0.00 0.00 56 1016.4
20260510155316 84 17 1.0 6.0 0.00 0.00 0.00 58 1016.5
20260510154310 83 334 3.0 6.0 0.00 0.00 0.00 57 1016.6
20260510153311 83 336 1.0 9.0 0.00 0.00 0.00 52 1016.6
20260510152322 83 10 2.0 5.0 0.00 0.00 0.00 57 1016.5
20260510151318 82 5 4.0 9.0 0.00 0.00 0.00 60 1016.5
20260510150310 82 50 2.0 4.0 0.00 0.00 0.00 59 1016.4
20260510145324 80 53 3.0 8.0 0.00 0.00 0.00 61 1016.5
20260510144312 79 333 3.0 8.0 0.00 0.00 0.00 65 1016.4
20260510143330 79 333 3.0 6.0 0.00 0.00 0.00 68 1016.3
20260510142322 78 253 2.0 6.0 0.00 0.00 0.00 66 1016.4
20260510141311 77 360 2.0 8.0 0.00 0.00 0.00 73 1016.5
20260510140309 77 295 2.0 6.0 0.00 0.00 0.00 76 1016.4
20260510135317 76 5 3.0 7.0 0.00 0.04 0.00 77 1016.4
20260510134318 75 237 3.0 7.0 0.00 0.04 0.00 78 1016.3
20260510133334 74 275 2.0 5.0 0.00 0.04 0.00 79 1016.3
20260510132323 73 276 3.0 7.0 0.00 0.04 0.00 83 1016.3
20260510131312 72 206 3.0 6.0 0.00 0.04 0.00 85 1016.3
20260510130328 71 254 3.0 7.0 0.00 0.04 0.00 86 1016.2
20260510125318 70 277 4.0 7.0 0.00 0.08 0.00 88 1016.2
20260510124318 69 257 2.0 5.0 0.00 0.08 0.00 88 1016.3
20260510123330 69 255 3.0 7.0 0.00 0.08 0.00 88 1016.3
20260510122309 68 229 3.0 6.0 0.00 0.08 0.00 89 1016.0
20260510121331 68 252 3.0 7.0 0.00 0.08 0.00 89 1016.0
20260510120321 67 182 3.0 5.0 0.00 0.08 0.00 90 1015.8
20260510115319 67 224 3.0 4.0 0.00 0.08 0.00 90 1015.8
20260510114312 67 239 2.0 5.0 0.00 0.08 0.00 91 1015.6
20260510113333 66 247 2.0 5.0 0.00 0.08 0.00 91 1015.6
20260510112322 66 225 2.0 3.0 0.00 0.08 0.00 91 1015.4
20260510111314 66 180 2.0 5.0 0.00 0.08 0.00 91 1015.3
20260510110314 66 240 3.0 6.0 0.00 0.08 0.00 91 1015.1
20260510105327 66 239 3.0 7.0 0.00 0.08 0.00 91 1015.0
20260510104326 66 249 3.0 7.0 0.00 0.08 0.00 91 1014.8
20260510103317 66 250 2.0 5.0 0.00 0.08 0.00 91 1014.6
20260510102336 66 243 3.0 5.0 0.00 0.08 0.00 91 1014.5
20260510101313 66 228 2.0 4.0 0.00 0.08 0.00 92 1014.3
20260510100312 66 254 2.0 4.0 0.00 0.08 0.00 92 1014.2
20260510095325 66 209 2.0 4.0 0.00 0.08 0.00 92 1014.2
20260510094323 65 190 1.0 3.0 0.00 0.08 0.00 91 1014.1
20260510093337 65 207 2.0 3.0 0.00 0.08 0.00 91 1013.9
20260510092316 66 155 2.0 3.0 0.00 0.08 0.00 91 1013.9
20260510091311 66 222 1.0 5.0 0.00 0.08 0.00 91 1014.0
20260510090330 66 207 1.0 4.0 0.00 0.08 0.00 91 1013.8
20260510085325 66 213 1.0 3.0 0.00 0.08 0.00 91 1013.6
20260510084323 66 147 2.0 4.0 0.00 0.08 0.00 91 1013.6
20260510083323 66 192 2.0 3.0 0.00 0.08 0.00 91 1013.5
20260510082317 66 205 2.0 3.0 0.00 0.08 0.00 91 1013.4
20260510081315 66 187 2.0 3.0 0.00 0.08 0.00 91 1013.4
20260510080314 66 192 1.0 3.0 0.00 0.08 0.00 91 1013.3
20260510075312 66 204 2.0 4.0 0.00 0.08 0.00 91 1013.3
20260510074316 66 216 2.0 4.0 0.00 0.08 0.00 91 1013.5
20260510073312 66 199 2.0 4.0 0.00 0.08 0.00 91 1013.4
20260510072309 66 196 2.0 4.0 0.00 0.08 0.00 91 1013.2
20260510071311 66 214 2.0 3.0 0.00 0.08 0.00 90 1013.2
20260510070325 66 180 2.0 3.0 0.00 0.08 0.00 90 1013.1
20260510065341 66 226 1.0 3.0 0.00 0.08 0.00 90 1013.1
20260510064342 66 270 2.0 4.0 0.00 0.08 0.00 90 1013.2
20260510063316 66 255 2.0 3.0 0.00 0.08 0.00 90 1013.4
20260510062339 66 200 1.0 3.0 0.00 0.08 0.00 89 1013.3
20260510061339 66 238 1.0 2.0 0.00 0.08 0.00 89 1013.3
20260510060311 66 197 0.0 2.0 0.00 0.08 0.00 89 1013.3
20260510055333 67 164 1.0 3.0 0.00 0.08 0.00 89 1013.3
20260510054354 67 160 1.0 2.0 0.00 0.08 0.00 88 1013.3
20260510053324 67 247 1.0 2.0 0.00 0.08 0.00 88 1013.5
20260510052316 67 237 1.0 3.0 0.00 0.08 0.00 87 1013.7
20260510051316 68 271 1.0 3.0 0.00 0.08 0.00 87 1013.6
20260510050311 68 260 1.0 2.0 0.00 0.08 0.00 86 1013.7
20260510045332 68 266 1.0 2.0 0.00 0.08 0.00 86 1013.7
20260510044328 68 275 1.0 2.0 0.00 0.08 0.00 86 1013.7
20260510043313 68 284 1.0 3.0 0.00 0.08 0.00 86 1013.6
20260510042313 69 270 2.0 4.0 0.00 0.08 0.00 86 1013.7
20260510041309 69 242 2.0 4.0 0.00 0.08 0.00 86 1013.6
20260510040329 68 246 2.0 4.0 0.00 0.08 0.00 86 1013.6
20260510035324 68 223 2.0 4.0 0.00 0.08 0.02 87 1013.5
20260510034332 68 205 2.0 4.0 0.00 0.08 0.02 86 1013.4
20260510033326 68 221 2.0 4.0 0.00 0.08 0.02 86 1013.3
20260510032346 69 187 2.0 4.0 0.00 0.08 0.02 86 1013.2
20260510031321 69 186 2.0 4.0 0.00 0.08 0.02 85 1013.3
20260510030319 69 187 2.0 5.0 0.00 0.08 0.02 85 1013.3
20260510025319 69 195 1.0 3.0 0.00 0.08 0.02 85 1013.3
20260510024315 70 170 2.0 3.0 0.00 0.08 0.02 84 1013.3
20260510023311 70 181 1.0 3.0 0.00 0.08 0.02 84 1013.3
20260510022335 70 218 2.0 3.0 0.00 0.08 0.02 83 1013.2
20260510021338 70 228 2.0 4.0 0.00 0.08 0.02 83 1013.1
20260510020312 70 220 1.0 3.0 0.00 0.08 0.02 83 1013.0
20260510015316 71 232 1.0 2.0 0.00 0.08 0.02 82 1012.9
20260510014313 71 200 2.0 5.0 0.00 0.08 0.02 82 1012.8
20260510013315 71 167 2.0 4.0 0.00 0.08 0.02 82 1012.8
20260510012310 71 215 1.0 3.0 0.00 0.08 0.02 81 1012.6
20260510011333 72 192 1.0 2.0 0.00 0.08 0.02 80 1012.4
20260510010329 72 244 1.0 3.0 0.00 0.08 0.02 79 1012.4
20260510005330 73 225 2.0 4.0 0.00 0.08 0.02 79 1012.3
20260510004311 73 200 1.0 3.0 0.00 0.08 0.02 78 1012.3
20260510003327 74 190 2.0 4.0 0.00 0.08 0.02 77 1012.2
20260510002328 74 147 2.0 4.0 0.00 0.08 0.02 76 1012.2
20260510001323 74 163 2.0 4.0 0.00 0.08 0.02 75 1011.9
20260510000328 75 187 2.0 5.0 0.00 0.08 0.02 74 1012.0
20260509235321 75 225 2.0 4.0 0.00 0.08 0.02 74 1011.9
20260509234318 76 171 3.0 7.0 0.00 0.08 0.02 73 1011.8
20260509233322 76 196 3.0 6.0 0.00 0.08 0.02 73 1011.5
20260509232318 76 225 4.0 9.0 0.00 0.08 0.02 72 1011.7
20260509231313 77 168 3.0 8.0 0.00 0.08 0.02 72 1011.3